EHC05 EHLE-EHRD

Flight info

Callsign EHC05
Flight time 0h 23m
Altitude 1200
Route DCT
Aircraft EC35/M-SBGRY/L

Departure

Time 2026-04-26 08:22
Airport Lelystad Airport (EHLE)

Arrival

Time 2026-04-26 08:45
Airport Rotterdam The Hague Airport (EHRD)
Time Latitude Longitude Altitude Speed Heading
2026-04-26 08:09 52.45308 5.51914 -7 ft 0 kts 54°
2026-04-26 08:19 52.45320 5.51911 9 ft 7 kts 30°
2026-04-26 08:19 52.45396 5.51925 9 ft 16 kts 328°
2026-04-26 08:20 52.45427 5.51889 7 ft 1 kts 324°
2026-04-26 08:20 52.45426 5.51892 11 ft 1 kts 323°
2026-04-26 08:20 52.45440 5.51871 14 ft 7 kts 321°
2026-04-26 08:20 52.45513 5.51811 31 ft 8 kts 33°
2026-04-26 08:21 52.45504 5.51819 26 ft 8 kts 87°
2026-04-26 08:21 52.45560 5.51884 112 ft 36 kts 45°
2026-04-26 08:21 52.45830 5.52371 241 ft 71 kts 44°
2026-04-26 08:21 52.46188 5.53029 343 ft 84 kts 47°
2026-04-26 08:22 52.46395 5.53943 415 ft 93 kts 80°
2026-04-26 08:22 52.46127 5.54894 565 ft 97 kts 124°
2026-04-26 08:22 52.45489 5.55260 701 ft 102 kts 171°
2026-04-26 08:22 52.44858 5.54794 864 ft 103 kts 217°
2026-04-26 08:23 52.44435 5.53890 1080 ft 96 kts 228°
2026-04-26 08:23 52.44100 5.52991 1046 ft 88 kts 229°
2026-04-26 08:23 52.43756 5.52185 1011 ft 92 kts 226°
2026-04-26 08:23 52.43283 5.51268 991 ft 119 kts 222°
2026-04-26 08:24 52.42671 5.50193 1016 ft 133 kts 218°
2026-04-26 08:24 52.42024 5.49150 1015 ft 129 kts 216°
2026-04-26 08:24 52.41381 5.48129 1016 ft 130 kts 216°
2026-04-26 08:24 52.40737 5.47088 1010 ft 130 kts 216°
2026-04-26 08:25 52.40098 5.46044 1011 ft 129 kts 217°
2026-04-26 08:25 52.39511 5.44946 1002 ft 132 kts 229°
2026-04-26 08:25 52.39120 5.43592 1021 ft 129 kts 238°
2026-04-26 08:25 52.38674 5.42304 1009 ft 129 kts 229°
2026-04-26 08:26 52.38249 5.40945 973 ft 145 kts 249°
2026-04-26 08:26 52.38081 5.39307 1018 ft 143 kts 256°
2026-04-26 08:26 52.37891 5.37713 1011 ft 145 kts 250°
2026-04-26 08:26 52.37588 5.36139 1014 ft 145 kts 242°
2026-04-26 08:27 52.37192 5.34638 1011 ft 144 kts 237°
2026-04-26 08:27 52.36727 5.33179 1010 ft 143 kts 234°
2026-04-26 08:27 52.36222 5.31765 1007 ft 144 kts 231°
2026-04-26 08:27 52.35691 5.30397 1010 ft 144 kts 230°
2026-04-26 08:28 52.35134 5.29036 1006 ft 144 kts 229°
2026-04-26 08:28 52.34565 5.27690 1007 ft 144 kts 227°
2026-04-26 08:28 52.33980 5.26344 1014 ft 145 kts 226°
2026-04-26 08:28 52.33385 5.24997 1008 ft 145 kts 227°
2026-04-26 08:29 52.32794 5.23673 1015 ft 144 kts 226°
2026-04-26 08:29 52.32201 5.22351 1013 ft 144 kts 226°
2026-04-26 08:29 52.31606 5.21031 1012 ft 144 kts 226°
2026-04-26 08:29 52.31012 5.19722 1007 ft 144 kts 226°
2026-04-26 08:30 52.30408 5.18394 1012 ft 145 kts 226°
2026-04-26 08:30 52.29804 5.17073 1018 ft 145 kts 225°
2026-04-26 08:30 52.29210 5.15777 1012 ft 144 kts 225°
2026-04-26 08:30 52.28605 5.14460 1015 ft 144 kts 225°
2026-04-26 08:31 52.27998 5.13139 1002 ft 145 kts 225°
2026-04-26 08:31 52.27401 5.11834 1019 ft 144 kts 225°
2026-04-26 08:31 52.26797 5.10518 1006 ft 145 kts 226°
2026-04-26 08:31 52.26199 5.09210 1015 ft 145 kts 225°
2026-04-26 08:32 52.25592 5.07888 1018 ft 145 kts 225°
2026-04-26 08:32 52.24991 5.06579 1002 ft 144 kts 226°
2026-04-26 08:32 52.24389 5.05258 1010 ft 144 kts 226°
2026-04-26 08:32 52.23798 5.03970 1008 ft 144 kts 225°
2026-04-26 08:33 52.23195 5.02660 1007 ft 144 kts 225°
2026-04-26 08:33 52.22593 5.01351 1007 ft 143 kts 225°
2026-04-26 08:33 52.21994 5.00047 1011 ft 144 kts 225°
2026-04-26 08:33 52.21398 4.98755 1007 ft 143 kts 225°
2026-04-26 08:34 52.20797 4.97449 1009 ft 144 kts 225°
2026-04-26 08:34 52.20195 4.96144 1009 ft 144 kts 225°
2026-04-26 08:34 52.19590 4.94835 1008 ft 144 kts 225°
2026-04-26 08:34 52.18985 4.93528 1012 ft 145 kts 225°
2026-04-26 08:35 52.18377 4.92211 1011 ft 144 kts 224°
2026-04-26 08:35 52.17782 4.90922 1013 ft 144 kts 225°
2026-04-26 08:35 52.17174 4.89606 1012 ft 145 kts 225°
2026-04-26 08:35 52.16568 4.88298 1005 ft 144 kts 225°
2026-04-26 08:36 52.16061 4.87200 1008 ft 146 kts 225°
2026-04-26 08:36 52.15458 4.85897 1007 ft 145 kts 225°
2026-04-26 08:36 52.14849 4.84583 1011 ft 144 kts 225°
2026-04-26 08:36 52.14249 4.83288 1004 ft 143 kts 225°
2026-04-26 08:37 52.13640 4.81972 1015 ft 145 kts 225°
2026-04-26 08:37 52.13043 4.80686 1011 ft 144 kts 225°
2026-04-26 08:37 52.12428 4.79365 1012 ft 145 kts 225°
2026-04-26 08:37 52.11829 4.78077 1006 ft 144 kts 225°
2026-04-26 08:38 52.11226 4.76779 1013 ft 144 kts 224°
2026-04-26 08:38 52.10624 4.75486 1007 ft 143 kts 225°
2026-04-26 08:38 52.10022 4.74190 1012 ft 144 kts 225°
2026-04-26 08:38 52.09416 4.72891 1010 ft 143 kts 225°
2026-04-26 08:39 52.08815 4.71601 1006 ft 145 kts 224°
2026-04-26 08:39 52.08199 4.70281 1011 ft 145 kts 225°
2026-04-26 08:39 52.07597 4.68987 1009 ft 145 kts 225°
2026-04-26 08:39 52.06995 4.67692 1008 ft 145 kts 225°
2026-04-26 08:40 52.06382 4.66374 1012 ft 144 kts 225°
2026-04-26 08:40 52.05774 4.65072 1009 ft 144 kts 225°
2026-04-26 08:40 52.05165 4.63768 1009 ft 144 kts 224°
2026-04-26 08:40 52.04559 4.62468 1007 ft 144 kts 225°
2026-04-26 08:41 52.04160 4.61612 1017 ft 143 kts 224°
2026-04-26 08:41 52.03357 4.59900 1012 ft 142 kts 224°
2026-04-26 08:41 52.02757 4.58622 1015 ft 142 kts 224°
2026-04-26 08:41 52.02058 4.57514 1005 ft 142 kts 210°
2026-04-26 08:42 52.01544 4.56849 1019 ft 141 kts 208°
2026-04-26 08:42 52.00759 4.55854 1012 ft 142 kts 208°
2026-04-26 08:42 51.99982 4.54874 1007 ft 142 kts 208°
2026-04-26 08:42 51.99206 4.53883 1009 ft 141 kts 208°
2026-04-26 08:43 51.98434 4.52903 1013 ft 143 kts 208°
2026-04-26 08:43 51.97640 4.51910 1013 ft 143 kts 208°
2026-04-26 08:43 51.96853 4.50891 1004 ft 145 kts 213°
2026-04-26 08:43 51.96175 4.49695 1005 ft 147 kts 224°
2026-04-26 08:44 51.95829 4.48120 1032 ft 146 kts 251°
2026-04-26 08:44 51.95658 4.46523 1007 ft 148 kts 259°
2026-04-26 08:44 51.95753 4.44877 1023 ft 145 kts 273°
2026-04-26 08:44 51.95734 4.43313 1060 ft 132 kts 245°
2026-04-26 08:45 51.95543 4.41944 1021 ft 109 kts 246°
2026-04-26 08:45 51.95175 4.41155 1114 ft 74 kts 185°
2026-04-26 08:45 51.94825 4.41296 1153 ft 40 kts 93°
2026-04-26 08:45 51.94859 4.41953 334 ft 74 kts 59°
2026-04-26 08:46 51.95101 4.42589 150 ft 63 kts 54°
2026-04-26 08:46 51.95344 4.43167 46 ft 57 kts 55°
2026-04-26 08:46 51.95480 4.43519 42 ft 20 kts 66°
2026-04-26 08:46 51.95436 4.43545 13 ft 13 kts 222°
2026-04-26 08:47 51.95398 4.43522 34 ft 1 kts 221°
2026-04-26 08:47 51.95389 4.43509 41 ft 4 kts 223°
2026-04-26 08:47 51.95330 4.43417 24 ft 19 kts 186°
2026-04-26 08:47 51.95241 4.43437 33 ft 9 kts 142°
2026-04-26 08:48 51.95190 4.43462 39 ft 9 kts 146°
2026-04-26 08:48 51.95167 4.43516 54 ft 6 kts 248°
2026-04-26 08:48 51.95142 4.43479 41 ft 8 kts 314°
2026-04-26 08:48 51.95074 4.43413 63 ft 5 kts 22°
2026-04-26 08:49 51.95091 4.43425 -2 ft 5 kts 334°
2026-04-26 08:49 51.95094 4.43420 -5 ft 1 kts 329°
2026-04-26 08:49 51.95095 4.43420 -5 ft 1 kts 331°
2026-04-26 08:49 51.95096 4.43419 -6 ft 1 kts 341°
2026-04-26 08:50 51.95096 4.43420 -6 ft 0 kts 327°